ELFIN-A (43617 NORAD) Tracking and Keplerian Element Data

This shows tracking and keplerian element data for the satellite.

Feedback or suggestion? Click here.




ElementValue
Catalog43617
NameELFIN-A
Epoch Orbit3357
Epoch Day112.14986084
Epoch Year2019
RAAN340.0305
Inclination93.0307
Eccentricity0.0017015
Argument of Perigee158.7778
Mean Anonmoly201.4185
Mean Motion15.3773479
Decay Rate3.061E-05
L11 43617U 18070E 19112.14986084 .00003061 00000-0 82507-4 0 9997
L22 43617 93.0307 340.0305 0017015 158.7778 201.4185 15.37734790 33572

Live tracking and technical data element details for ELFIN-A (NORAD 43617). ELFIN-A can be tracked NOW for your location showing map with azimuth and elevation plus other details from your city location.

Track the satellite on the map from your city or location and see movement details for azimuth, elevation, latitude, longitude, range, height, and movement on the map or in text.







IsCatalogInMostPopularTable: catalog: 43617, numindb: 80
Update: records affected: 1



GetName: 43617 ELFIN-A

Hit Count: updated at: Tue, 23 Apr 2019 19:58:17 GMT